CW4740 Weather Reports


Display with metric or nautical units.
time (UTC)temp
F
wind
direction
speed
MPH
gust
MPH
rain 1hr
in
rain 24hr
in
rain mn
in
humidity
%
barometer
mb
20260831063634 82 115 1.0 4.0 0.00 2.01 0.00 88 1015.8
20260831063151 82 115 1.0 6.0 0.00 2.01 0.00 88 1015.8
20260831062707 82 115 2.0 6.0 0.00 2.01 0.00 88 1015.6
20260831062224 82 115 2.0 4.0 0.00 2.01 0.00 88 1015.6
20260831061640 82 115 0.0 4.0 0.00 2.01 0.00 88 1015.5
20260831061136 82 115 2.0 4.0 0.00 2.01 0.00 88 1015.8
20260831060655 82 115 2.0 6.0 0.00 2.01 0.00 88 1015.8
20260831060131 82 115 3.0 8.0 0.00 2.01 0.00 87 1016.0
20260831055642 82 115 4.0 8.0 0.00 2.01 0.00 87 1016.2
20260831055139 82 121 3.0 7.0 0.00 2.01 0.00 87 1016.3
20260831054638 82 121 2.0 9.0 0.00 2.01 0.00 88 1016.4
20260831054157 82 94 3.0 9.0 0.00 2.01 0.00 88 1016.5
20260831053713 81 94 4.0 9.0 0.00 2.01 0.00 89 1016.5
20260831053149 81 94 5.0 8.0 0.00 2.01 0.00 90 1016.6
20260831052645 81 94 3.0 6.0 0.00 2.01 0.00 90 1016.7
20260831052140 81 94 2.0 6.0 0.00 2.01 0.00 91 1016.7
20260831051637 81 94 2.0 6.0 0.00 2.01 0.00 91 1016.8
20260831051214 81 94 2.0 3.0 0.00 2.01 0.00 91 1016.9
20260831050630 81 94 1.0 3.0 0.00 2.01 0.00 91 1016.8
20260831050147 81 94 1.0 3.0 0.00 2.01 0.00 91 1016.8
20260831045655 81 94 0.0 0.0 0.00 2.01 0.00 91 1017.0
20260831045150 81 94 0.0 0.0 0.00 2.01 0.00 91 1017.1
20260831044727 81 94 0.0 0.0 0.00 2.01 0.00 91 1017.2
20260831044202 81 94 0.0 0.0 0.00 2.01 0.00 92 1017.2
20260831043700 81 94 0.0 0.0 0.00 2.01 0.00 92 1017.3
20260831043136 80 94 0.0 0.0 0.00 2.01 0.00 92 1017.2
20260831042749 80 94 0.0 0.0 0.00 2.01 0.00 92 1017.3
20260831042242 80 94 0.0 0.0 0.00 2.01 0.00 92 1017.3
20260831042200 80 94 0.0 0.0 0.00 2.01 0.00 92 1017.3
20260831041716 80 94 0.0 0.0 0.00 2.01 0.00 92 1017.2
20260831041131 80 94 0.0 0.0 0.00 2.01 0.00 92 1017.1
20260831040628 80 94 0.0 0.0 0.00 2.01 0.00 92 1017.0
20260831040206 80 94 0.0 0.0 0.00 2.01 2.01 92 1017.1
20260831035734 80 94 0.0 0.0 0.00 2.01 2.01 92 1017.1
20260831035248 80 94 0.0 0.0 0.00 2.01 2.01 92 1017.0
20260831034705 80 94 0.0 0.0 0.00 2.01 2.01 92 1017.2
20260831034201 79 94 0.0 0.0 0.00 2.01 2.01 92 1017.3
20260831033718 79 94 0.0 0.0 0.00 2.01 2.01 92 1017.3
20260831033636 79 94 0.0 0.0 0.00 2.01 2.01 92 1017.3
20260831033228 79 94 0.0 0.0 0.00 2.01 2.01 92 1017.2
20260831032628 79 94 0.0 0.0 0.00 2.01 2.01 92 1017.4
20260831032222 79 94 0.0 0.0 0.00 2.01 2.01 92 1017.3
20260831031635 79 94 0.0 0.0 0.00 2.01 2.01 92 1017.3
20260831031135 79 94 0.0 0.0 0.00 2.01 2.01 92 1017.4
20260831030749 79 94 0.0 0.0 0.00 2.01 2.01 92 1017.4
20260831030645 79 94 0.0 0.0 0.00 2.01 2.01 92 1017.4
20260831030142 79 94 0.0 0.0 0.00 2.01 2.01 92 1017.4
20260831025651 79 94 0.0 0.0 0.00 2.01 2.01 92 1017.4
20260831025128 79 94 0.0 0.0 0.00 2.01 2.01 93 1017.4
20260831024630 79 94 0.0 4.0 0.00 2.01 2.01 93 1017.1
20260831024204 78 94 1.0 4.0 0.00 2.01 2.01 93 1017.2
20260831023722 78 94 2.0 4.0 0.00 2.01 2.01 94 1017.2
20260831023137 78 94 1.0 2.0 0.00 2.01 2.01 94 1017.2
20260831022639 78 94 0.0 2.0 0.00 2.01 2.01 94 1017.2
20260831022156 78 94 0.0 0.0 0.00 2.01 2.01 93 1017.1
20260831021633 78 94 0.0 0.0 0.00 2.01 2.01 93 1017.2
20260831021247 78 94 0.0 0.0 0.00 2.01 2.01 93 1017.2
20260831021205 78 94 0.0 0.0 0.00 2.01 2.01 93 1017.2
20260831020642 78 94 0.0 0.0 0.00 2.01 2.01 93 1017.2
20260831020200 78 94 0.0 0.0 0.00 2.01 2.01 93 1017.3
20260831015630 78 94 0.0 0.0 0.00 2.01 2.01 92 1017.3
20260831015223 78 94 0.0 0.0 0.00 2.01 2.01 92 1017.4
20260831014636 78 94 0.0 0.0 0.00 2.01 2.01 92 1017.3
20260831014137 78 94 0.0 0.0 0.00 2.01 2.01 92 1017.3
20260831013750 78 94 0.0 1.0 0.00 2.01 2.01 92 1017.2
20260831013646 78 94 0.0 1.0 0.00 2.01 2.01 92 1017.2
20260831013141 78 94 0.0 4.0 0.00 2.01 2.01 92 1017.3
20260831012638 78 94 1.0 4.0 0.00 2.01 2.01 92 1017.2
20260831012156 78 94 1.0 3.0 0.00 2.01 2.01 92 1017.2
20260831011654 78 94 1.0 6.0 0.00 2.01 2.01 93 1017.2
20260831011131 78 94 2.0 7.0 0.00 2.01 2.01 93 1017.2
20260831010632 78 94 2.0 8.0 0.00 2.01 2.01 93 1017.2
20260831010151 78 94 4.0 9.0 0.00 2.01 2.01 94 1017.2
20260831005639 78 94 3.0 6.0 0.00 2.01 2.01 95 1017.3
20260831005212 78 94 2.0 9.0 0.00 2.01 2.01 95 1017.2
20260831004630 78 94 4.0 9.0 0.00 2.01 2.01 95 1017.2
20260831004205 78 94 3.0 4.0 0.01 2.01 2.01 95 1017.1
20260831003645 78 94 1.0 6.0 0.01 2.01 2.01 96 1017.2
20260831003158 77 94 2.0 4.0 0.01 2.01 2.01 96 1017.0
20260831002639 77 94 2.0 4.0 0.01 2.01 2.01 95 1017.1
20260831002137 77 94 0.0 0.0 0.01 2.01 2.01 95 1017.0
20260831001654 77 94 0.0 7.0 0.01 2.01 2.01 95 1016.9
20260831001247 77 94 1.0 7.0 0.02 2.01 2.01 95 1016.9
20260831001143 77 94 1.0 7.0 0.02 2.01 2.01 95 1016.9
20260831000641 77 94 2.0 6.0 0.03 2.01 2.01 95 1016.8
20260831000218 77 94 2.0 6.0 0.03 2.01 2.01 95 1016.8
20260830235703 77 94 3.0 6.0 0.05 2.01 2.01 95 1016.8
20260830235159 77 94 3.0 6.0 0.13 2.01 2.01 95 1016.9
20260830234656 76 94 0.0 0.0 0.39 2.01 2.01 95 1016.9
20260830234233 76 94 0.0 0.0 0.60 2.00 2.00 95 1016.9
20260830234130 76 94 0.0 0.0 0.60 2.00 2.00 95 1016.9
20260830233708 76 94 0.0 4.0 0.88 2.00 2.00 95 1017.0
20260830233146 76 94 1.0 7.0 1.20 2.00 2.00 95 1017.0
20260830232704 76 94 3.0 7.0 1.48 2.00 2.00 95 1017.1
20260830232141 75 94 2.0 7.0 1.74 2.00 2.00 94 1017.0
20260830231638 75 94 3.0 7.0 1.90 2.00 2.00 94 1016.9
20260830231234 75 94 3.0 7.0 1.97 1.99 1.99 94 1016.7
20260830230647 75 275 2.0 10.0 1.97 1.98 1.98 94 1016.6
20260830230144 75 261 4.0 10.0 1.98 1.98 1.98 93 1016.8
20260830225652 75 244 0.0 11.0 1.96 1.96 1.96 92 1017.2
20260830225146 76 247 2.0 15.0 1.86 1.86 1.86 92 1017.5
20260830224723 78 271 4.0 8.0 1.59 1.59 1.59 91 1017.6
20260830224158 78 326 3.0 4.0 1.37 1.37 1.37 93 1017.6
20260830223635 79 226 1.0 8.0 1.08 1.08 1.10 92 1018.0
20260830223132 79 224 4.0 8.0 0.78 0.78 0.78 91 1017.9
20260830222710 80 255 4.0 8.0 0.48 0.48 0.48 90 1017.5
20260830222147 81 264 3.0 7.0 0.25 0.25 0.25 89 1017.4
20260830221706 82 193 4.0 7.0 0.10 0.10 0.10 88 1017.1
20260830221142 83 230 4.0 10.0 0.02 0.02 0.02 86 1016.8
20260830220638 84 175 3.0 10.0 0.01 0.01 0.01 83 1016.6
20260830220135 85 236 0.0 5.0 0.00 0.00 0.00 82 1016.5
20260830215641 85 252 3.0 9.0 0.00 0.00 0.00 80 1016.3
20260830215159 86 251 3.0 9.0 0.00 0.00 0.00 81 1016.4
20260830214656 86 111 2.0 7.0 0.00 0.00 0.00 81 1016.4
20260830214133 86 106 5.0 9.0 0.00 0.00 0.00 81 1016.3
20260830213710 86 78 4.0 8.0 0.00 0.00 0.00 81 1016.2
20260830213628 86 78 4.0 8.0 0.00 0.00 0.00 81 1016.2
20260830213145 87 89 4.0 7.0 0.00 0.00 0.00 81 1016.2
20260830212641 87 79 2.0 6.0 0.00 0.00 0.00 81 1016.4
20260830212158 87 355 3.0 9.0 0.00 0.00 0.00 80 1016.3
20260830211734 87 87 4.0 9.0 0.00 0.00 0.00 80 1016.2
20260830211229 87 84 2.0 6.0 0.00 0.00 0.00 81 1016.2
20260830210702 87 58 2.0 7.0 0.00 0.00 0.00 80 1016.2
20260830210218 87 80 4.0 9.0 0.00 0.00 0.00 80 1016.3
20260830205704 88 102 3.0 10.0 0.00 0.00 0.00 80 1016.0
20260830205141 88 93 5.0 10.0 0.00 0.00 0.00 79 1016.1
20260830204659 88 110 3.0 10.0 0.00 0.00 0.00 79 1016.1
20260830204155 88 108 5.0 10.0 0.00 0.00 0.00 78 1016.2
20260830203732 88 88 7.0 10.0 0.00 0.00 0.00 77 1016.4
20260830203147 88 101 4.0 10.0 0.00 0.00 0.00 78 1016.5
20260830202645 88 81 4.0 10.0 0.00 0.00 0.00 77 1016.4
20260830202142 88 45 5.0 11.0 0.00 0.00 0.00 78 1016.3
20260830201700 88 156 6.0 10.0 0.00 0.00 0.00 77 1016.0
20260830201218 88 115 7.0 10.0 0.00 0.00 0.00 78 1015.9
20260830200634 88 101 5.0 10.0 0.00 0.00 0.00 78 1016.2
20260830200212 88 102 6.0 10.0 0.00 0.02 0.00 76 1016.4
20260830195714 88 71 5.0 8.0 0.00 0.02 0.00 78 1016.6
20260830195632 88 71 5.0 8.0 0.00 0.02 0.00 78 1016.6
20260830195228 88 164 5.0 10.0 0.00 0.02 0.00 77 1016.5
20260830194641 88 121 4.0 10.0 0.00 0.02 0.00 77 1016.6
20260830194139 88 107 5.0 12.0 0.00 0.02 0.00 77 1016.6
20260830193716 88 104 7.0 12.0 0.00 0.02 0.00 75 1016.6
20260830193132 89 135 4.0 11.0 0.00 0.02 0.00 75 1016.6
20260830192650 89 80 4.0 12.0 0.00 0.02 0.00 75 1016.6
20260830192147 89 60 6.0 12.0 0.00 0.02 0.00 76 1016.6
20260830191704 89 128 6.0 11.0 0.00 0.02 0.00 76 1016.7
20260830191140 89 139 7.0 12.0 0.00 0.02 0.00 75 1016.8
20260830190657 89 140 6.0 12.0 0.00 0.02 0.00 76 1016.8
20260830190215 89 138 5.0 9.0 0.00 0.11 0.00 77 1016.9
20260830185642 88 88 5.0 10.0 0.00 0.11 0.00 78 1016.9
20260830185140 88 146 4.0 10.0 0.00 0.11 0.00 78 1017.0
20260830184658 88 120 5.0 9.0 0.00 0.11 0.00 76 1016.9
20260830184133 88 94 5.0 10.0 0.00 0.11 0.00 77 1016.9
20260830183631 88 109 6.0 11.0 0.00 0.11 0.00 76 1016.9
20260830183129 88 84 7.0 12.0 0.00 0.11 0.00 76 1017.0
20260830182707 89 90 7.0 11.0 0.00 0.11 0.00 76 1017.1
20260830182203 88 90 7.0 14.0 0.00 0.11 0.00 76 1017.2
20260830181640 88 105 8.0 14.0 0.00 0.11 0.00 75 1017.1
20260830181238 89 109 5.0 12.0 0.00 0.11 0.00 75 1017.2
20260830180652 89 99 4.0 9.0 0.00 0.11 0.00 77 1017.1
20260830180229 88 107 3.0 10.0 0.00 0.16 0.00 76 1017.3
20260830180147 88 107 3.0 10.0 0.00 0.16 0.00 76 1017.3
20260830175652 89 136 6.0 10.0 0.00 0.16 0.00 76 1017.2
20260830175208 89 109 5.0 10.0 0.00 0.16 0.00 76 1017.2
20260830174644 88 134 5.0 9.0 0.00 0.16 0.00 75 1017.2
20260830174202 88 84 4.0 8.0 0.00 0.16 0.00 76 1017.2
20260830173640 88 103 4.0 9.0 0.00 0.16 0.00 75 1017.1
20260830173138 87 103 4.0 9.0 0.00 0.16 0.00 75 1017.2
20260830172656 87 117 5.0 9.0 0.00 0.16 0.00 75 1017.2
20260830172133 87 111 4.0 10.0 0.00 0.16 0.00 75 1017.1
20260830171632 87 111 4.0 10.0 0.00 0.16 0.00 74 1017.2
20260830171133 86 64 5.0 9.0 0.00 0.16 0.00 74 1017.4
20260830170653 86 108 5.0 10.0 0.00 0.16 0.00 75 1017.6
20260830170226 85 102 5.0 10.0 0.00 0.16 0.00 75 1017.8
20260830165750 85 101 6.0 12.0 0.00 0.16 0.00 74 1017.8
20260830165646 85 101 6.0 12.0 0.00 0.16 0.00 74 1017.8
20260830165144 86 109 8.0 13.0 0.00 0.16 0.00 72 1017.9
20260830164703 85 87 7.0 13.0 0.00 0.16 0.00 75 1017.9
20260830164219 85 92 8.0 12.0 0.00 0.16 0.00 77 1017.9
20260830164137 85 92 8.0 12.0 0.00 0.16 0.00 77 1017.9
20260830163634 85 87 6.0 12.0 0.00 0.16 0.00 78 1017.9
20260830163150 85 126 3.0 11.0 0.00 0.16 0.00 81 1018.0
20260830162646 84 101 5.0 11.0 0.00 0.16 0.00 81 1018.0
20260830162144 84 104 4.0 9.0 0.00 0.16 0.00 80 1018.3
20260830161719 85 80 3.0 8.0 0.00 0.16 0.00 80 1018.4
20260830161215 84 111 2.0 8.0 0.00 0.16 0.00 81 1018.5
20260830161133 84 111 2.0 8.0 0.00 0.16 0.00 81 1018.5
20260830160711 84 36 2.0 5.0 0.00 0.16 0.00 81 1018.6
20260830160129 84 355 2.0 5.0 0.00 0.16 0.00 81 1018.8
20260830155658 84 343 4.0 5.0 0.00 0.16 0.00 79 1018.8
20260830155234 84 107 1.0 6.0 0.00 0.16 0.00 81 1018.9
20260830154628 83 34 0.0 4.0 0.00 0.16 0.00 80 1019.1
20260830154205 83 32 2.0 5.0 0.00 0.16 0.00 80 1019.2
20260830153701 83 53 3.0 5.0 0.00 0.16 0.00 79 1019.3
20260830153158 83 103 2.0 7.0 0.00 0.16 0.00 80 1019.3
20260830152635 83 103 3.0 8.0 0.00 0.16 0.00 80 1019.5
20260830152154 83 117 3.0 9.0 0.00 0.16 0.00 80 1019.6
20260830151631 83 86 2.0 9.0 0.00 0.16 0.00 80 1019.6
20260830151208 82 63 5.0 9.0 0.00 0.16 0.00 79 1019.6
20260830150703 82 91 4.0 9.0 0.00 0.16 0.00 78 1019.3
20260830150238 81 107 3.0 7.0 0.00 0.16 0.00 81 1019.2
20260830145642 81 107 4.0 7.0 0.00 0.16 0.00 83 1019.2
20260830145158 80 75 2.0 7.0 0.00 0.16 0.00 84 1018.9
20260830144634 80 88 3.0 11.0 0.00 0.16 0.00 84 1018.9
20260830144212 80 98 3.0 11.0 0.00 0.16 0.00 85 1019.0
20260830143743 80 57 5.0 12.0 0.00 0.16 0.00 85 1019.0
20260830143158 80 80 8.0 13.0 0.00 0.16 0.00 85 1018.9
20260830142735 81 134 7.0 13.0 0.00 0.16 0.00 84 1019.0
20260830142653 81 134 7.0 13.0 0.00 0.16 0.00 84 1019.0
20260830142129 80 96 4.0 11.0 0.00 0.16 0.00 84 1019.1
20260830141748 80 115 4.0 13.0 0.00 0.16 0.00 83 1019.2
20260830141705 80 115 4.0 13.0 0.00 0.16 0.00 83 1019.2
20260830141222 80 107 7.0 13.0 0.00 0.16 0.00 82 1019.0
20260830140638 81 72 7.0 11.0 0.00 0.16 0.00 82 1018.8
20260830140138 81 72 8.0 16.0 0.00 0.16 0.00 80 1018.6
20260830135727 82 104 8.0 17.0 0.00 0.16 0.00 80 1018.7
20260830135202 83 71 11.0 17.0 0.00 0.16 0.00 80 1018.7
20260830134658 84 109 6.0 14.0 0.00 0.16 0.00 84 1018.6
20260830134133 84 105 7.0 14.0 0.00 0.16 0.00 83 1018.3
20260830133629 85 56 8.0 13.0 0.00 0.16 0.00 83 1017.9
20260830133147 86 134 3.0 10.0 0.00 0.16 0.00 85 1017.7
20260830132645 86 145 3.0 10.0 0.00 0.16 0.00 85 1017.6
20260830132224 86 142 2.0 9.0 0.00 0.16 0.00 85 1017.7
20260830131701 86 109 4.0 12.0 0.00 0.16 0.00 84 1017.7
20260830131218 86 134 2.0 12.0 0.00 0.16 0.00 84 1017.7
20260830131136 86 134 2.0 12.0 0.00 0.16 0.00 84 1017.7
20260830130654 86 90 6.0 11.0 0.00 0.16 0.00 84 1017.8
20260830130131 86 83 7.0 11.0 0.00 0.16 0.00 84 1017.8
20260830125740 86 112 3.0 10.0 0.00 0.16 0.00 85 1017.7
20260830125637 86 112 3.0 10.0 0.00 0.16 0.00 85 1017.7
20260830125153 85 78 5.0 10.0 0.00 0.16 0.00 84 1017.7
20260830124729 85 114 4.0 9.0 0.00 0.16 0.00 84 1017.9
20260830124144 85 142 3.0 9.0 0.00 0.16 0.00 84 1017.9
20260830123642 86 96 4.0 9.0 0.00 0.16 0.00 83 1017.9
20260830123220 86 108 5.0 10.0 0.00 0.16 0.00 83 1017.8
20260830122716 86 130 4.0 12.0 0.00 0.16 0.00 84 1017.7
20260830122131 85 130 6.0 12.0 0.00 0.16 0.00 84 1017.6
20260830121650 85 109 4.0 11.0 0.00 0.16 0.00 83 1017.5
20260830121147 85 117 3.0 7.0 0.00 0.16 0.00 83 1017.5
20260830120645 85 117 3.0 9.0 0.00 0.16 0.00 83 1017.5
20260830120142 84 117 4.0 9.0 0.00 0.16 0.00 83 1017.5
20260830115710 84 117 3.0 7.0 0.00 0.16 0.00 85 1017.5
20260830115224 84 144 3.0 7.0 0.00 0.16 0.00 85 1017.5
20260830114715 84 132 2.0 7.0 0.00 0.16 0.00 85 1017.4
20260830114135 84 159 3.0 7.0 0.00 0.16 0.00 85 1017.3
20260830113749 84 152 3.0 7.0 0.00 0.16 0.00 85 1017.2
20260830113144 84 144 3.0 7.0 0.00 0.16 0.00 85 1017.1
20260830112702 83 123 2.0 8.0 0.00 0.16 0.00 86 1016.8
20260830112137 83 144 3.0 8.0 0.00 0.16 0.00 85 1016.6
20260830111654 83 117 3.0 7.0 0.00 0.16 0.00 86 1016.6
20260830111211 83 117 3.0 6.0 0.00 0.16 0.00 86 1016.5
20260830110728 83 145 4.0 7.0 0.00 0.16 0.00 86 1016.4
20260830110145 83 102 3.0 8.0 0.00 0.16 0.00 86 1016.4
20260830105635 83 144 4.0 7.0 0.00 0.16 0.00 86 1016.4
20260830105132 83 123 3.0 7.0 0.00 0.16 0.00 86 1016.2
20260830104650 83 120 3.0 8.0 0.00 0.16 0.00 86 1016.2
20260830104228 83 164 3.0 7.0 0.00 0.16 0.00 86 1016.2
20260830103643 83 128 3.0 7.0 0.00 0.16 0.00 86 1016.1
20260830103140 83 123 2.0 7.0 0.00 0.16 0.00 86 1016.1
20260830102734 83 123 2.0 7.0 0.00 0.16 0.00 86 1016.0
20260830102631 83 123 2.0 7.0 0.00 0.16 0.00 86 1016.0
20260830102129 83 135 2.0 8.0 0.00 0.16 0.00 86 1015.9
20260830101646 83 116 5.0 8.0 0.00 0.16 0.00 86 1015.9
20260830101144 83 148 5.0 10.0 0.00 0.16 0.00 87 1015.8
20260830100642 83 95 3.0 8.0 0.00 0.16 0.00 86 1015.8
20260830100201 83 118 4.0 9.0 0.00 0.16 0.00 87 1015.7
20260830095706 83 121 4.0 8.0 0.00 0.16 0.00 87 1015.7
20260830095143 83 117 4.0 6.0 0.00 0.16 0.00 87 1015.6
20260830094701 83 132 3.0 9.0 0.00 0.16 0.00 87 1015.6
20260830094158 83 118 6.0 10.0 0.00 0.16 0.00 87 1015.6
20260830093736 83 108 5.0 10.0 0.00 0.16 0.00 87 1015.6
20260830093151 83 116 5.0 10.0 0.00 0.16 0.00 86 1015.6
20260830092648 83 105 5.0 8.0 0.00 0.16 0.00 87 1015.5
20260830092206 83 111 5.0 11.0 0.00 0.16 0.00 87 1015.5
20260830091641 83 107 6.0 11.0 0.00 0.16 0.00 86 1015.5
20260830091219 83 101 5.0 11.0 0.00 0.16 0.00 86 1015.5
20260830090656 84 107 6.0 11.0 0.00 0.16 0.00 86 1015.5
20260830090133 84 107 5.0 12.0 0.00 0.16 0.00 86 1015.5
20260830085639 84 89 6.0 12.0 0.00 0.16 0.00 86 1015.7
20260830085156 84 95 4.0 12.0 0.00 0.16 0.00 86 1015.7
20260830084652 83 117 6.0 12.0 0.00 0.16 0.00 85 1015.6
20260830084147 84 107 4.0 10.0 0.00 0.16 0.00 85 1015.5
20260830083644 83 126 6.0 10.0 0.00 0.16 0.00 85 1015.6
20260830083200 83 117 5.0 15.0 0.00 0.16 0.00 85 1015.7
20260830082634 83 155 6.0 15.0 0.00 0.16 0.00 85 1015.7
20260830082131 83 105 4.0 10.0 0.00 0.16 0.00 86 1015.8
20260830081728 84 107 5.0 10.0 0.00 0.16 0.00 86 1015.9
20260830081244 84 133 5.0 14.0 0.00 0.16 0.00 86 1016.0
20260830080638 84 90 7.0 14.0 0.00 0.16 0.00 86 1016.1
20260830080215 84 120 6.0 13.0 0.00 0.16 0.00 86 1016.2
20260830080133 84 120 6.0 13.0 0.00 0.16 0.00 86 1016.2
20260830075702 84 110 7.0 11.0 0.00 0.16 0.00 86 1016.2
20260830075158 84 107 7.0 13.0 0.00 0.16 0.00 86 1016.3
20260830074715 84 88 7.0 16.0 0.00 0.16 0.00 86 1016.3
20260830074633 84 88 7.0 16.0 0.00 0.16 0.00 86 1016.3
20260830074151 83 85 6.0 13.0 0.00 0.16 0.00 86 1016.2
20260830073627 84 90 7.0 13.0 0.00 0.16 0.00 86 1016.3
20260830073225 83 103 6.0 13.0 0.00 0.16 0.00 86 1016.3
20260830072641 83 119 6.0 13.0 0.00 0.16 0.00 86 1016.3
20260830072159 83 103 8.0 13.0 0.00 0.16 0.00 86 1016.4
20260830071637 84 132 5.0 12.0 0.00 0.16 0.00 87 1016.5
20260830071215 83 103 4.0 12.0 0.00 0.16 0.00 86 1016.5
20260830070651 83 86 6.0 13.0 0.00 0.16 0.00 86 1016.6
20260830070246 84 99 6.0 13.0 0.00 0.16 0.00 86 1016.5
20260830065711 84 96 6.0 13.0 0.00 0.16 0.00 86 1016.6
20260830065205 84 103 8.0 15.0 0.00 0.16 0.00 86 1016.6
20260830064655 83 111 8.0 15.0 0.00 0.16 0.00 85 1016.5
20260830064230 83 115 8.0 15.0 0.00 0.16 0.00 86 1016.5